| time (UTC) | temp F | wind direction | speed MPH | gust MPH | rain 1hr in | rain 24hr in | rain mn in | humidity % | barometer mb |
| 20260506123542 | 83 | 190 | 4.0 | 11.0 | 0.00 | 0.00 | 0.00 | 28 | 1011.5 |
| 20260506122534 | 82 | 198 | 5.0 | 12.0 | 0.00 | 0.00 | 0.00 | 28 | 1011.7 |
| 20260506121550 | 83 | 194 | 6.0 | 12.0 | 0.00 | 0.00 | 0.00 | 27 | 1011.8 |
| 20260506120531 | 82 | 181 | 4.0 | 13.0 | 0.00 | 0.00 | 0.00 | 28 | 1011.8 |
| 20260506115523 | 82 | 193 | 6.0 | 14.0 | 0.00 | 0.00 | 0.00 | 27 | 1011.9 |
| 20260506114543 | 82 | 195 | 7.0 | 16.0 | 0.00 | 0.00 | 0.00 | 26 | 1012.1 |
| 20260506113534 | 83 | 186 | 5.0 | 14.0 | 0.00 | 0.00 | 0.00 | 27 | 1012.1 |
| 20260506112531 | 82 | 185 | 5.0 | 14.0 | 0.00 | 0.00 | 0.00 | 28 | 1012.2 |
| 20260506111528 | 82 | 188 | 8.0 | 18.0 | 0.00 | 0.00 | 0.00 | 27 | 1012.3 |
| 20260506110545 | 82 | 189 | 6.0 | 13.0 | 0.00 | 0.00 | 0.00 | 28 | 1012.5 |
| 20260506105540 | 82 | 193 | 7.0 | 17.0 | 0.00 | 0.00 | 0.00 | 28 | 1012.6 |
| 20260506104536 | 82 | 188 | 6.0 | 14.0 | 0.00 | 0.00 | 0.00 | 28 | 1012.7 |
| 20260506103531 | 82 | 192 | 4.0 | 10.0 | 0.00 | 0.00 | 0.00 | 36 | 1012.8 |
| 20260506102528 | 81 | 201 | 5.0 | 12.0 | 0.00 | 0.00 | 0.00 | 34 | 1012.9 |
| 20260506101524 | 80 | 181 | 4.0 | 15.0 | 0.00 | 0.00 | 0.00 | 41 | 1012.9 |
| 20260506100521 | 80 | 199 | 3.0 | 7.0 | 0.00 | 0.00 | 0.00 | 41 | 1012.8 |
| 20260506095517 | 79 | 185 | 2.0 | 6.0 | 0.00 | 0.00 | 0.00 | 42 | 1012.9 |
| 20260506094552 | 79 | 183 | 3.0 | 7.0 | 0.00 | 0.00 | 0.00 | 43 | 1013.2 |
| 20260506093529 | 78 | 186 | 4.0 | 9.0 | 0.00 | 0.00 | 0.00 | 44 | 1013.2 |
| 20260506092545 | 77 | 170 | 2.0 | 5.0 | 0.00 | 0.00 | 0.00 | 46 | 1013.3 |
| 20260506091522 | 76 | 179 | 2.0 | 8.0 | 0.00 | 0.00 | 0.00 | 45 | 1013.4 |
| 20260506090538 | 75 | 205 | 1.0 | 5.0 | 0.00 | 0.00 | 0.00 | 48 | 1013.4 |
| 20260506085534 | 75 | 198 | 2.0 | 6.0 | 0.00 | 0.00 | 0.00 | 48 | 1013.4 |
| 20260506084529 | 74 | 171 | 2.0 | 5.0 | 0.00 | 0.00 | 0.00 | 50 | 1013.4 |
| 20260506083526 | 74 | 103 | 2.0 | 7.0 | 0.00 | 0.00 | 0.00 | 50 | 1013.4 |
| 20260506082523 | 73 | 124 | 2.0 | 6.0 | 0.00 | 0.00 | 0.00 | 50 | 1013.5 |
| 20260506081519 | 73 | 159 | 1.0 | 4.0 | 0.00 | 0.00 | 0.00 | 50 | 1013.5 |
| 20260506080535 | 71 | 162 | 1.0 | 4.0 | 0.00 | 0.00 | 0.00 | 50 | 1013.5 |
| 20260506073522 | 68 | 170 | 1.0 | 3.0 | 0.00 | 0.00 | 0.00 | 52 | 1013.6 |
| 20260506072520 | 68 | 177 | 4.0 | 6.0 | 0.00 | 0.00 | 0.00 | 51 | 1013.6 |
| 20260506071616 | 67 | 176 | 3.0 | 5.0 | 0.00 | 0.00 | 0.00 | 53 | 1013.7 |
| 20260506070531 | 66 | 187 | 3.0 | 7.0 | 0.00 | 0.00 | 0.00 | 53 | 1013.6 |
| 20260506062516 | 64 | 153 | 2.0 | 5.0 | 0.00 | 0.00 | 0.00 | 56 | 1013.5 |
| 20260506061533 | 63 | 177 | 2.0 | 4.0 | 0.00 | 0.00 | 0.00 | 58 | 1013.7 |
| 20260506060529 | 62 | 175 | 2.0 | 5.0 | 0.00 | 0.00 | 0.00 | 61 | 1013.5 |
| 20260506050526 | 59 | 109 | 2.0 | 5.0 | 0.00 | 0.00 | 0.00 | 67 | 1013.6 |
| 20260506044518 | 58 | 125 | 2.0 | 3.0 | 0.00 | 0.00 | 0.00 | 67 | 1013.4 |
| 20260506043555 | 57 | 126 | 2.0 | 4.0 | 0.00 | 0.00 | 0.00 | 68 | 1013.3 |
| 20260506042531 | 56 | 88 | 3.0 | 4.0 | 0.00 | 0.00 | 0.00 | 69 | 1013.3 |
| 20260506041527 | 55 | 111 | 1.0 | 4.0 | 0.00 | 0.00 | 0.00 | 71 | 1013.2 |
| 20260506040525 | 54 | 136 | 2.0 | 4.0 | 0.00 | 0.00 | 0.00 | 70 | 1013.2 |
| 20260506035519 | 52 | 121 | 2.0 | 3.0 | 0.00 | 0.00 | 0.00 | 73 | 1013.2 |
| 20260506034535 | 51 | 141 | 3.0 | 4.0 | 0.00 | 0.00 | 0.00 | 76 | 1013.2 |
| 20260506033552 | 49 | 72 | 1.0 | 2.0 | 0.00 | 0.00 | 0.00 | 78 | 1013.2 |
| 20260506032529 | 49 | 129 | 2.0 | 3.0 | 0.00 | 0.00 | 0.00 | 79 | 1013.1 |
| 20260506031525 | 48 | 130 | 1.0 | 2.0 | 0.00 | 0.00 | 0.00 | 81 | 1013.0 |
| 20260506030525 | 48 | 98 | 1.0 | 3.0 | 0.00 | 0.00 | 0.00 | 81 | 1012.8 |
| 20260506025516 | 48 | 119 | 3.0 | 4.0 | 0.00 | 0.00 | 0.00 | 81 | 1012.9 |
| 20260506024533 | 49 | 127 | 2.0 | 3.0 | 0.00 | 0.00 | 0.00 | 80 | 1012.8 |
| 20260506023549 | 49 | 124 | 2.0 | 3.0 | 0.00 | 0.00 | 0.00 | 79 | 1012.8 |
| 20260506022524 | 50 | 127 | 1.0 | 3.0 | 0.00 | 0.00 | 0.00 | 78 | 1012.9 |
| 20260506021521 | 50 | 118 | 1.0 | 2.0 | 0.00 | 0.00 | 0.00 | 78 | 1012.8 |
| 20260506020516 | 50 | 125 | 1.0 | 2.0 | 0.00 | 0.00 | 0.00 | 77 | 1012.7 |
| 20260506015537 | 50 | 126 | 1.0 | 3.0 | 0.00 | 0.00 | 0.00 | 76 | 1012.7 |
| 20260506014529 | 51 | 120 | 0.0 | 2.0 | 0.00 | 0.00 | 0.00 | 75 | 1012.6 |
| 20260506013526 | 50 | 119 | 1.0 | 2.0 | 0.00 | 0.00 | 0.00 | 75 | 1012.6 |
| 20260506012522 | 51 | 106 | 0.0 | 2.0 | 0.00 | 0.00 | 0.00 | 74 | 1012.6 |
| 20260506011517 | 51 | 106 | 0.0 | 1.0 | 0.00 | 0.00 | 0.00 | 73 | 1012.6 |
| 20260506010534 | 52 | 98 | 1.0 | 2.0 | 0.00 | 0.00 | 0.00 | 74 | 1012.4 |
| 20260506005530 | 53 | 67 | 1.0 | 3.0 | 0.00 | 0.00 | 0.00 | 71 | 1012.5 |
| 20260506004547 | 56 | 163 | 2.0 | 3.0 | 0.00 | 0.00 | 0.00 | 66 | 1012.5 |
| 20260506003543 | 56 | 151 | 2.0 | 5.0 | 0.00 | 0.00 | 0.00 | 66 | 1012.5 |
| 20260506002520 | 55 | 144 | 2.0 | 4.0 | 0.00 | 0.00 | 0.00 | 68 | 1012.5 |
| 20260506001555 | 56 | 135 | 2.0 | 3.0 | 0.00 | 0.00 | 0.00 | 67 | 1012.5 |
| 20260506000531 | 56 | 162 | 3.0 | 4.0 | 0.00 | 0.00 | 0.00 | 66 | 1012.4 |
| 20260505235527 | 55 | 159 | 3.0 | 4.0 | 0.00 | 0.00 | 0.00 | 67 | 1012.4 |
| 20260505234523 | 55 | 117 | 1.0 | 2.0 | 0.00 | 0.00 | 0.00 | 68 | 1012.4 |
| 20260505233520 | 55 | 120 | 2.0 | 4.0 | 0.00 | 0.00 | 0.00 | 68 | 1012.3 |
| 20260505232516 | 55 | 111 | 2.0 | 2.0 | 0.00 | 0.00 | 0.00 | 68 | 1012.3 |
| 20260505231532 | 56 | 79 | 1.0 | 2.0 | 0.00 | 0.00 | 0.00 | 67 | 1012.4 |
| 20260505230528 | 56 | 133 | 1.0 | 2.0 | 0.00 | 0.00 | 0.00 | 66 | 1012.4 |
| 20260505225524 | 56 | 149 | 1.0 | 3.0 | 0.00 | 0.00 | 0.00 | 65 | 1012.3 |
| 20260505224521 | 56 | 103 | 2.0 | 2.0 | 0.00 | 0.00 | 0.00 | 65 | 1012.4 |
| 20260505223537 | 56 | 91 | 2.0 | 5.0 | 0.00 | 0.00 | 0.00 | 65 | 1012.4 |
| 20260505222533 | 55 | 124 | 2.0 | 3.0 | 0.00 | 0.00 | 0.00 | 65 | 1012.4 |
| 20260505221528 | 56 | 97 | 3.0 | 5.0 | 0.00 | 0.00 | 0.00 | 63 | 1012.4 |
| 20260505220525 | 57 | 102 | 3.0 | 6.0 | 0.00 | 0.00 | 0.00 | 62 | 1012.4 |
| 20260505215521 | 59 | 82 | 2.0 | 3.0 | 0.00 | 0.00 | 0.00 | 59 | 1012.4 |
| 20260505214518 | 59 | 163 | 3.0 | 6.0 | 0.00 | 0.00 | 0.00 | 59 | 1012.2 |
| 20260505213534 | 60 | 131 | 2.0 | 4.0 | 0.00 | 0.00 | 0.00 | 58 | 1012.3 |
| 20260505212530 | 58 | 157 | 3.0 | 6.0 | 0.00 | 0.00 | 0.00 | 58 | 1012.3 |
| 20260505211546 | 58 | 124 | 3.0 | 4.0 | 0.00 | 0.00 | 0.00 | 58 | 1012.3 |
| 20260505210543 | 57 | 140 | 3.0 | 4.0 | 0.00 | 0.00 | 0.00 | 56 | 1012.3 |
| 20260505205518 | 58 | 160 | 3.0 | 5.0 | 0.00 | 0.00 | 0.00 | 55 | 1012.3 |
| 20260505204556 | 58 | 159 | 3.0 | 5.0 | 0.00 | 0.00 | 0.00 | 54 | 1012.3 |
| 20260505203531 | 59 | 136 | 2.0 | 3.0 | 0.00 | 0.00 | 0.00 | 53 | 1012.3 |
| 20260505202547 | 59 | 150 | 3.0 | 3.0 | 0.00 | 0.00 | 0.00 | 53 | 1012.3 |
| 20260505201523 | 58 | 129 | 1.0 | 2.0 | 0.00 | 0.00 | 0.00 | 55 | 1012.3 |
| 20260505200545 | 59 | 123 | 2.0 | 2.0 | 0.00 | 0.00 | 0.00 | 54 | 1012.3 |
| 20260505195556 | 60 | 129 | 2.0 | 3.0 | 0.00 | 0.00 | 0.00 | 52 | 1012.3 |
| 20260505194553 | 61 | 131 | 2.0 | 2.0 | 0.00 | 0.00 | 0.00 | 51 | 1012.2 |
| 20260505193529 | 62 | 155 | 2.0 | 4.0 | 0.00 | 0.00 | 0.00 | 49 | 1012.2 |
| 20260505192524 | 64 | 179 | 4.0 | 6.0 | 0.00 | 0.00 | 0.00 | 47 | 1012.1 |
| 20260505191520 | 64 | 186 | 4.0 | 8.0 | 0.00 | 0.00 | 0.00 | 47 | 1012.0 |
| 20260505190517 | 64 | 185 | 4.0 | 7.0 | 0.00 | 0.00 | 0.00 | 48 | 1012.2 |
| 20260505185533 | 64 | 174 | 3.0 | 7.0 | 0.00 | 0.00 | 0.00 | 48 | 1012.1 |
| 20260505184550 | 64 | 157 | 2.0 | 4.0 | 0.00 | 0.00 | 0.00 | 48 | 1012.1 |
| 20260505183526 | 65 | 164 | 2.0 | 4.0 | 0.00 | 0.00 | 0.00 | 48 | 1012.1 |
| 20260505182541 | 65 | 156 | 2.0 | 3.0 | 0.00 | 0.00 | 0.00 | 47 | 1012.1 |
| 20260505181539 | 66 | 154 | 2.0 | 3.0 | 0.00 | 0.00 | 0.00 | 45 | 1012.0 |
| 20260505180534 | 67 | 165 | 2.0 | 3.0 | 0.00 | 0.00 | 0.00 | 45 | 1012.0 |
| 20260505175612 | 68 | 157 | 2.0 | 3.0 | 0.00 | 0.00 | 0.00 | 44 | 1011.8 |
| 20260505174547 | 70 | 159 | 2.0 | 3.0 | 0.00 | 0.00 | 0.00 | 42 | 1011.8 |
| 20260505173523 | 71 | 161 | 1.0 | 3.0 | 0.00 | 0.00 | 0.00 | 40 | 1011.6 |
| 20260505172518 | 72 | 162 | 2.0 | 3.0 | 0.00 | 0.00 | 0.00 | 38 | 1011.6 |
| 20260505171534 | 73 | 159 | 1.0 | 2.0 | 0.00 | 0.00 | 0.00 | 37 | 1011.6 |
| 20260505170531 | 74 | 159 | 1.0 | 2.0 | 0.00 | 0.00 | 0.00 | 35 | 1011.5 |
| 20260505165527 | 75 | 168 | 1.0 | 3.0 | 0.00 | 0.00 | 0.00 | 34 | 1011.4 |
| 20260505164524 | 76 | 174 | 1.0 | 2.0 | 0.00 | 0.00 | 0.00 | 33 | 1011.5 |
| 20260505163519 | 77 | 154 | 1.0 | 2.0 | 0.00 | 0.00 | 0.00 | 32 | 1011.5 |
| 20260505162536 | 78 | 152 | 0.0 | 2.0 | 0.00 | 0.00 | 0.00 | 31 | 1011.5 |
| 20260505161532 | 78 | 150 | 1.0 | 2.0 | 0.00 | 0.00 | 0.00 | 30 | 1011.5 |
| 20260505160529 | 79 | 173 | 1.0 | 3.0 | 0.00 | 0.00 | 0.00 | 28 | 1011.5 |
| 20260505152532 | 81 | 181 | 1.0 | 4.0 | 0.00 | 0.00 | 0.00 | 27 | 1011.6 |
| 20260505151528 | 81 | 181 | 0.0 | 3.0 | 0.00 | 0.00 | 0.00 | 28 | 1011.7 |
| 20260505150525 | 81 | 187 | 1.0 | 4.0 | 0.00 | 0.00 | 0.00 | 28 | 1011.7 |
| 20260505140522 | 82 | 138 | 2.0 | 5.0 | 0.00 | 0.00 | 0.00 | 29 | 1012.2 |
| 20260505124531 | 82 | 122 | 2.0 | 5.0 | 0.00 | 0.00 | 0.00 | 30 | 1013.1 |